EN

Hourly Weather Nauchnyi

Today, 28 October, Wednesday

Time Temperature Precipitation Wind Pressure Humidity
00:00 +14°C° 0 mm 1 mps 716 mmHg 73%
01:00 +14°C° 0 mm 1 mps 717 mmHg 71%
02:00 +13°C° 0 mm 1 mps 717 mmHg 70%
03:00 +13°C° 0 mm 1 mps 716 mmHg 69%
04:00 +13°C° 0 mm 1 mps 716 mmHg 68%
05:00 +13°C° 0 mm 1 mps 716 mmHg 68%
06:00 +14°C° 0 mm 1 mps 716 mmHg 64%
07:00 +15°C° 0 mm 2 mps 717 mmHg 60%
08:00 +16°C° 0 mm 2 mps 717 mmHg 56%
09:00 +18°C° 0 mm 2 mps 717 mmHg 51%
10:00 +19°C° 0 mm 2 mps 717 mmHg 45%
11:00 +21°C° 0 mm 2 mps 717 mmHg 40%
12:00 +21°C° 0.1 mm 2 mps 717 mmHg 41%
13:00 +23°C° 0.1 mm 2 mps 717 mmHg 41%
14:00 +23°C° 0.1 mm 2 mps 717 mmHg 42%
15:00 +20°C° 0.1 mm 2 mps 717 mmHg 47%
16:00 +19°C° 0.1 mm 3 mps 717 mmHg 53%
17:00 +18°C° 0.1 mm 3 mps 717 mmHg 58%
18:00 +18°C° 0 mm 3 mps 716 mmHg 61%
19:00 +17°C° 0 mm 3 mps 716 mmHg 64%
20:00 +17°C° 0 mm 2 mps 716 mmHg 66%
21:00 +16°C° 0 mm 2 mps 716 mmHg 68%
22:00 +16°C° 0 mm 2 mps 716 mmHg 69%
23:00 +15°C° 0 mm 1 mps 716 mmHg 70%

Tomorrow, 29 October, Thursday

Time Temperature Precipitation Wind Pressure Humidity
00:00 +15°C° 0 mm 1 mps 716 mmHg 72%
01:00 +15°C° 0 mm 1 mps 715 mmHg 74%
02:00 +14°C° 0 mm 1 mps 715 mmHg 76%
03:00 +14°C° 0 mm 1 mps 715 mmHg 76%
04:00 +14°C° 0 mm 1 mps 715 mmHg 76%
05:00 +14°C° 0 mm 1 mps 715 mmHg 77%
06:00 +15°C° 0 mm 1 mps 715 mmHg 71%
07:00 +16°C° 0 mm 1 mps 715 mmHg 66%
08:00 +18°C° 0 mm 1 mps 715 mmHg 61%
09:00 +19°C° 0 mm 1 mps 715 mmHg 58%
10:00 +19°C° 0 mm 2 mps 716 mmHg 55%
11:00 +20°C° 0 mm 2 mps 716 mmHg 52%
12:00 +19°C° 0 mm 2 mps 716 mmHg 56%
13:00 +19°C° 0 mm 3 mps 715 mmHg 60%
14:00 +18°C° 0 mm 3 mps 715 mmHg 64%
15:00 +17°C° 0.5 mm 3 mps 715 mmHg 71%
16:00 +16°C° 0.5 mm 3 mps 715 mmHg 79%
17:00 +14°C° 0.5 mm 3 mps 715 mmHg 86%
18:00 +14°C° 0.4 mm 3 mps 715 mmHg 84%
19:00 +15°C° 0.4 mm 2 mps 715 mmHg 83%
20:00 +14°C° 0.4 mm 1 mps 715 mmHg 81%
21:00 +14°C° 0.1 mm 1 mps 715 mmHg 81%
22:00 +14°C° 0.1 mm 1 mps 715 mmHg 81%
23:00 +14°C° 0.1 mm 1 mps 715 mmHg 81%

Day after tomorrow, 30 October, Friday

Time Temperature Precipitation Wind Pressure Humidity
00:00 +14°C° 0.1 mm 2 mps 714 mmHg 82%
01:00 +13°C° 0.1 mm 2 mps 714 mmHg 83%
02:00 +13°C° 0.1 mm 2 mps 714 mmHg 84%
03:00 +13°C° 0.1 mm 2 mps 714 mmHg 85%
04:00 +13°C° 0.1 mm 2 mps 714 mmHg 86%
05:00 +12°C° 0.1 mm 1 mps 715 mmHg 88%
06:00 +13°C° 0.1 mm 2 mps 715 mmHg 88%
07:00 +13°C° 0.1 mm 2 mps 715 mmHg 88%
08:00 +13°C° 0.1 mm 3 mps 715 mmHg 88%
09:00 +14°C° 0.1 mm 3 mps 715 mmHg 84%
10:00 +14°C° 0.1 mm 3 mps 716 mmHg 80%
11:00 +16°C° 0.1 mm 3 mps 716 mmHg 75%
12:00 +16°C° 0 mm 3 mps 716 mmHg 74%
13:00 +16°C° 0 mm 3 mps 715 mmHg 72%
14:00 +16°C° 0 mm 3 mps 715 mmHg 70%
15:00 +15°C° 0 mm 2 mps 715 mmHg 73%
16:00 +14°C° 0 mm 1 mps 715 mmHg 77%
17:00 +13°C° 0 mm 1 mps 715 mmHg 80%
18:00 +13°C° 0.4 mm 1 mps 715 mmHg 81%
19:00 +13°C° 0.4 mm 1 mps 715 mmHg 82%
20:00 +13°C° 0.4 mm 2 mps 715 mmHg 84%
21:00 +12°C° 1 mm 2 mps 715 mmHg 86%
22:00 +12°C° 1 mm 1 mps 715 mmHg 87%
23:00 +12°C° 1 mm 1 mps 715 mmHg 89%

31 October, Saturday

Time Temperature Precipitation Wind Pressure Humidity
00:00 +12°C° 0.1 mm 1 mps 715 mmHg 88%
01:00 +11°C° 0.1 mm 1 mps 715 mmHg 86%
02:00 +11°C° 0.1 mm 1 mps 715 mmHg 84%
03:00 +11°C° 0.2 mm 1 mps 715 mmHg 83%
04:00 +11°C° 0.2 mm 1 mps 715 mmHg 82%
05:00 +11°C° 0.2 mm 1 mps 715 mmHg 81%
06:00 +12°C° 0.5 mm 2 mps 715 mmHg 81%
07:00 +12°C° 0.5 mm 2 mps 715 mmHg 81%
08:00 +12°C° 0.5 mm 2 mps 715 mmHg 81%
09:00 +12°C° 0.5 mm 3 mps 715 mmHg 78%
10:00 +12°C° 0.5 mm 3 mps 714 mmHg 74%
11:00 +13°C° 0.5 mm 4 mps 714 mmHg 70%
12:00 +13°C° 0.5 mm 4 mps 714 mmHg 69%
13:00 +13°C° 0.5 mm 4 mps 714 mmHg 67%
14:00 +13°C° 0.5 mm 4 mps 714 mmHg 65%
15:00 +12°C° 0.1 mm 3 mps 714 mmHg 71%
16:00 +12°C° 0.1 mm 2 mps 714 mmHg 78%
17:00 +10°C° 0.1 mm 2 mps 714 mmHg 84%
18:00 +11°C° 0 mm 1 mps 714 mmHg 86%
19:00 +11°C° 0 mm 1 mps 714 mmHg 88%
20:00 +10°C° 0 mm 1 mps 715 mmHg 90%
21:00 +10°C° 0 mm 1 mps 715 mmHg 89%
22:00 +10°C° 0 mm 1 mps 715 mmHg 88%
23:00 +10°C° 0 mm 1 mps 715 mmHg 87%

1 November, Sunday

Time Temperature Precipitation Wind Pressure Humidity
00:00 +10°C° 0 mm 1 mps 715 mmHg 86%
01:00 +10°C° 0 mm 1 mps 715 mmHg 85%
02:00 +10°C° 0 mm 1 mps 715 mmHg 84%
03:00 +10°C° 0 mm 1 mps 715 mmHg 85%
04:00 +10°C° 0 mm 1 mps 715 mmHg 86%
05:00 +10°C° 0 mm 1 mps 715 mmHg 87%
06:00 +10°C° 0 mm 1 mps 715 mmHg 85%
07:00 +11°C° 0 mm 1 mps 715 mmHg 82%
08:00 +11°C° 0 mm 1 mps 716 mmHg 80%
09:00 +12°C° 0.1 mm 2 mps 716 mmHg 74%
10:00 +13°C° 0.1 mm 2 mps 716 mmHg 68%
11:00 +14°C° 0.1 mm 2 mps 716 mmHg 62%
12:00 +14°C° 0.3 mm 2 mps 716 mmHg 64%
13:00 +14°C° 0.3 mm 2 mps 716 mmHg 65%
14:00 +14°C° 0.3 mm 1 mps 716 mmHg 67%
15:00 +13°C° 0.5 mm 1 mps 716 mmHg 72%
16:00 +12°C° 0.5 mm 1 mps 716 mmHg 77%
17:00 +12°C° 0.5 mm 1 mps 716 mmHg 82%
18:00 +11°C° 0.2 mm 1 mps 716 mmHg 83%
19:00 +11°C° 0.2 mm 1 mps 716 mmHg 84%
20:00 +10°C° 0.2 mm 2 mps 716 mmHg 85%
21:00 +10°C° 0.3 mm 2 mps 716 mmHg 86%
22:00 +10°C° 0.3 mm 2 mps 716 mmHg 86%
23:00 +10°C° 0.3 mm 2 mps 716 mmHg 87%

2 November, Monday

Time Temperature Precipitation Wind Pressure Humidity
00:00 +10°C° 0.1 mm 2 mps 716 mmHg 87%
01:00 +9°C° 0.1 mm 2 mps 716 mmHg 87%
02:00 +9°C° 0.1 mm 2 mps 716 mmHg 87%
03:00 +9°C° 0.1 mm 2 mps 716 mmHg 86%
04:00 +9°C° 0.1 mm 2 mps 716 mmHg 85%
05:00 +9°C° 0.1 mm 2 mps 716 mmHg 85%
06:00 +9°C° 0 mm 2 mps 716 mmHg 82%
07:00 +9°C° 0 mm 2 mps 717 mmHg 79%
08:00 +10°C° 0 mm 2 mps 717 mmHg 76%
09:00 +12°C° 0.1 mm 2 mps 717 mmHg 70%
10:00 +12°C° 0.1 mm 3 mps 718 mmHg 64%
11:00 +13°C° 0.1 mm 3 mps 718 mmHg 58%
12:00 +13°C° 0.1 mm 3 mps 718 mmHg 58%
13:00 +13°C° 0.1 mm 3 mps 718 mmHg 59%
14:00 +13°C° 0.1 mm 4 mps 718 mmHg 59%
15:00 +12°C° 0.3 mm 4 mps 718 mmHg 66%
16:00 +11°C° 0.3 mm 4 mps 718 mmHg 72%
17:00 +11°C° 0.3 mm 4 mps 718 mmHg 78%
18:00 +10°C° 0 mm 3 mps 719 mmHg 80%
19:00 +9°C° 0 mm 2 mps 719 mmHg 81%
20:00 +9°C° 0 mm 2 mps 719 mmHg 83%
21:00 +9°C° 0 mm 2 mps 719 mmHg 82%
22:00 +9°C° 0 mm 1 mps 720 mmHg 82%
23:00 +9°C° 0 mm 1 mps 720 mmHg 81%
Show more

We Need Your Consent

Meteoprog and our Service Providers may store and access personal data such as cookies, device identifiers or other similar technologies on your device and process such data to personalise content and ads, as well as provide social media features and to analyse the traffic.

  • Store and/or access information on your device

    Cookies, device identifiers or other information can be stored or accessed on your device for the purposes indicated above.

  • Personalised ads and content, ad and content measurement, audience insights, and products development

    Ads and content can be personalised based on a profile. More data can be added to better personalise ads and content. Ad and content performance can be measured. Insights about the audience who saw the ads and content can be derived. Such data can be used to develop or improve user’s experience, systems and software.

By clicking ‘I Agree’ you will allow the use of indicated cookies, device identifiers, web beacons or other similar technologies. Your settings can be changed in the browser on your device.

For certain purposes, legitimate interests may be relied on, rather than consent. You can read more about this in our Privacy and Cookie Policy.